Regional Weather Roundup
Issued by NWS

Home | Current Version | Previous Version | Text Only | Print | Product List | Glossary On
Versions: 1 2 3 4 5 6 7 8 9 10 11 12 13 14 15 16 17 18 19 20 21 22 23 24 25 26 27 28
000
ASCA42 TJSJ 182010
RWRPR
PUERTO RICO/U.S. VIRGIN ISLANDS HOURLY WEATHER ROUNDUP
NATIONAL WEATHER SERVICE SAN JUAN PR
400 PM AST FRI AUG 18 2017

PRZ001>002-007>008-010-182100-
PUERTO RICO

CITY           SKY/WX    TMP DP  RH WIND       PRES   REMARKS
SAN JUAN LMM   MOSUNNY   88  75  66 E16G25    29.90S HX  97
AGUADILLA      MOSUNNY   86  73  66 E23       29.91S HX  93
CEIBA          MOSUNNY   88  77  70 NE12G18   29.93R HX 100
$$

VIZ001>002-182100-
U.S. VIRGIN ISLANDS

CITY           SKY/WX    TMP DP  RH WIND       PRES   REMARKS
CHARLOTTE AMA  MOSUNNY   88  75  66 E14       29.89S HX  97
CHRISTIANSTED  MOSUNNY   88  75  66 E20       29.89S HX  97
$$

HOURLY WEATHER ROUNDUP FOR THE NEWS MEDIA

CITY           SKY/WX    TMP DP  RH WIND       PRES   REMARKS
ORLANDO        MOSUNNY   93  74  53 S12       29.96F HX 103
NEW YORK       CLOUDY    79  78  97 S17       29.81F
NEWARK         PTSUNNY   82  76  81 S7        29.77F
CHICAGO        MOSUNNY   81  60  48 W13       29.85F
HARTFORD       LGT RAIN  73  71  93 S12       29.87F
BOSTON         LGT RAIN  77  70  79 S14       29.84S
DALLAS         PTSUNNY   89  72  56 NW12      30.02S HX  96
PHILADELPHIA   PTSUNNY   89  77  67 S9        29.76F HX 101
LOS ANGELES    MOSUNNY   73  63  70 W16       30.00F
WASHINGTON DC  PTSUNNY   92  74  55 SW14      29.76F HX 101



USA.gov is the U.S. government's official web portal to all federal, state and local government web resources and services.